Powrót do katalogu

BLOCK DM-SL R/B

AktywnyHEO
NORAD 28900·ROCKET BODY· XX

Wystrzelony Nov 8, 2005 z Sea Launch Platform

Loading…

Następne Przeloty (najbliższe 24 godziny)

TLE

ŚwieżeSource: Space-Track

Epoka: Sep 14, 2026, 17:44 UTC

1 28900U 05044B   26257.73918722  .00005793  00000-0  14557-2 0  9991
2 28900   2.9488  55.4434 6957596 149.5420 282.6029  2.69621181186975

Śledź BLOCK DM-SL R/B w czasie rzeczywistym z AllMySat

Download on the App Store